THORAD AGENA D DEB

Satellite information

Favourite Embed

Satellite Type and Status

DEBRISIN ORBIT

Key statistics

Satellite THORAD AGENA D DEB at a glance.

Uptime

20307

Days in orbit

Revolutions

≈ 14.4

Per day

Orbit

LEO

Low Earth Orbit

Inclination

70.1

Latest

Satellite identification and parameters

Extended collection of information and parameters for THORAD AGENA D DEB.

Object identification

Identified? True

Debris? True

Object name: THORAD AGENA D DEB

International designator: 1969-082AP

Object number (NORAD): 4171

Object ID (CCSDS): 4171

Country: UNITED STATES OF AMERICA (US)

Current information (Y/N): Y

RCS size: SMALL

Orbital parameters

Period: 100.235 minutes

Inclination: 70.0777 deg

SMA: 7147.821 km

Apoapsis: 795.036 km

Periapsis: 744.335 km

RAAN: 22.7346 deg

Eccentricy: 0.0035466

Argument of periapsis: 326.1762 deg

Mean anomaly: 33.7103 deg

Mean motion: 14.36621177 rev/day

Mean motion (dot): 0.00001449 rev/day2

B* drag term: 0.00050819 1/REarth

Two-line elements (TLE)

Creation date: May 6, 2025, 3:54 a.m.

Reference frame: TEME

Reference center: EARTH

Epoch: May 5, 2025, 7:57 p.m. UTC

TLE line 0: 0 THORAD AGENA D DEB

TLE line 1: 1 04171U 69082AP 25125.83166351 .00001449 00000-0 50819-3 0 9990

TLE line 2: 2 04171 70.0777 22.7346 0035466 326.1762 33.7103 14.36621177880661

Live tracking on map

Real-time ground track for satellite THORAD AGENA D DEB.

In-orbit conjunctions

A list of the most updated potential collisions computed for object THORAD AGENA D DEB.

Target Orbit TCA Probability of collision Miss distance Type
THORAD AGENA D DEB SSO 2025-03-30 04:50:08 0.0001157649 161.0 (m) DEBRIS
CBERS 1 DEB SSO 2025-02-12 11:06:21 0.000216027 205.0 (m) DEBRIS
COSMOS 2251 DEB LEO 2024-09-25 19:15:35 0.0001599799 928.0 (m) DEBRIS
DELTA 2 R/B(1) LEO 2024-05-28 18:25:20 0.0001315919 490.0 (m) ROCKET BODY

Associated space launch

Poppy was the follow-on ELINT system, which succeeded the Grab ELINT satellite system.

THORAD AGENA D DEB was lifted into orbit during the mission ‘Thorad SLV-2G Agena D | Poppy 8A,B,C,D’, on board a Thorad SLV-2G Agena D space rocket.

The launch took place on Sept. 30, 1969, 1:40 p.m. from Space Launch Complex 1W.

For more information about the launch, click the button.

Launch to space Thorad SLV-2G Agena D | Poppy 8A,B,C,D
Thorad SLV-2G Agena D | Poppy 8A,B,C,D

Agency: N/A

Status: Launch Successful

Launch date: Sept. 30, 1969, 1:40 p.m. UTC

Rocket: Thorad SLV-2G Agena D

Launch pad: Space Launch Complex 1W

Location: Vandenberg SFB, CA, USA

...

Latest news about this satellite

There are no fresh news available about this satellite. Check back as we update our databases every day.


Newsletter sign-up

Weekly statistics, charts and insights to help you stay on top of the space industry.